www.pogodaiklimat.ru

Погода и климат >> Архив погоды >> Дания >> Ланго


ПОГОДА в Ланго

  • Прогноз погоды в Ланго
  • Монитор погоды в Ланго

АРХИВ ПОГОДЫ в Ланго

Время (UTC), дата Ветер
(напр.,м/с)
 
Видим.   Явления Облачность Т
(С)
Тd
(С)
f
(%)
Тe
(С)
Тes
(С)
Комфортность P
(гПа)
Po
(гПа)
Тmin
(С)
Tmax
(С)
R
(мм)
R24
(мм)
S
(см)
07 9.09 СВ 3 н/о н/о +14.9 +12.2 84 +14 +14 1015.4 1014.9
08 9.09 С 3 н/о н/о +15.0 +12.6 86 +14 +14 1014.8 1014.4
09 9.09 С 4 н/о н/о +15.3 +12.4 83 +14 +14 1014.3 1013.8
10 9.09 С 4 н/о н/о +15.2 +13.1 87 +14 +14 1014.0 1013.6
11 9.09 С 4 н/о н/о +15.3 +13.5 89 +14 +14 1013.6 1013.2 0.2
12 9.09 С 5 н/о н/о +14.8 +12.6 87 +13 +13 1013.2 1012.8 0.3
13 9.09 С 5 н/о н/о +14.9 +13.2 90 +13 +13 1012.8 1012.3 0.4
14 9.09 С 7 н/о н/о +15.0 +11.5 80 +13 +13 1012.1 1011.7 0.5
15 9.09 СЗ 8 н/о н/о +14.8 +13.1 90 +13 +13 1011.8 1011.3 2
16 9.09 СЗ 7 н/о н/о +14.8 +13.7 93 +13 +13 1011.8 1011.4 2
17 9.09 СЗ 8 н/о н/о +14.4 +13.6 95 +12 +12 1011.2 1010.8 5
18 9.09 СЗ 8 н/о н/о +14.4 +13.9 97 +12 +12 1011.1 1010.6 +14.2 +15.4 10
19 9.09 СЗ 10 н/о н/о +14.7 +14.1 96 +12 +12 1010.6 1010.2 3
20 9.09 СЗ 11 н/о н/о +14.5 +14.0 97 +12 +12 1010.0 1009.6 4
21 9.09 СЗ 10 н/о н/о +14.6 +14.0 96 +12 +12 1009.8 1009.4 7
22 9.09 СЗ 10 н/о н/о +14.6 +14.2 97 +12 +12 1009.7 1009.2 0.3
23 9.09 СЗ 9 н/о н/о +14.4 +13.9 97 +12 +12 1009.5 1009.1 1
00 10.09 СЗ 11 н/о н/о +14.2 +13.5 96 +11 +11 1009.3 1008.9 2
01 10.09 СЗ 11 н/о н/о +13.9 +13.4 97 +11 +11 1009.4 1008.9 0.2
02 10.09 СЗ 11 н/о н/о +13.6 +13.1 97 +10 +10 1009.2 1008.8 0.9
03 10.09 СЗ 9 н/о н/о +13.7 +13.0 96 +11 +11 1008.8 1008.4 2
04 10.09 СЗ 10 н/о н/о +13.8 +12.4 91 +11 +11 1009.0 1008.5
05 10.09 СЗ 11 н/о н/о +14.2 +12.7 91 +11 +11 1009.1 1008.7
06 10.09 З 11 н/о н/о +14.3 +13.2 93 +11 +11 1009.2 1008.7 +13.5 +14.8
07 10.09 З 11 н/о н/о +14.2 +13.5 96 +11 +11 1009.5 1009.1
08 10.09 З 11 н/о н/о +14.3 +13.5 95 +11 +11 1009.8 1009.3 2
09 10.09 З 12 н/о н/о +14.8 +13.3 91 +12 +12 1010.0 1009.5 3
10 10.09 З 11 н/о н/о +15.1 +13.7 91 +12 +12 1010.0 1009.6 0.3
11 10.09 З 9 н/о н/о +15.4 +14.3 93 +13 +13 1010.3 1009.9 0.5
12 10.09 З 9 н/о н/о +15.6 +14.5 93 +13 +13 1010.6 1010.1 2
13 10.09 З 10 н/о н/о +15.9 +14.3 90 +14 +14 1011.0 1010.5 0.4
14 10.09 З 10 н/о н/о +15.6 +14.3 92 +13 +13 1011.6 1011.1 0.1
15 10.09 З 9 н/о н/о +15.4 +14.4 94 +13 +13 1012.0 1011.6 0.9
16 10.09 З 9 н/о н/о +15.7 +13.5 87 +14 +14 1012.6 1012.1
17 10.09 З 7 н/о н/о +15.8 +14.5 92 +14 +14 1013.2 1012.8
18 10.09 З 9
{15}
н/о н/о +15.7 +14.2 91 +14 +14 1013.7 1013.2 +14.1 +16.0
19 10.09 З 9 н/о н/о +15.4 +13.6 89 +13 +13 1014.3 1013.9
20 10.09 З 9 н/о н/о +15.1 +13.3 89 +13 +13 1015.0 1014.5
21 10.09 З 9 н/о н/о +15.0 +13.2 89 +13 +13 1015.5 1015.0
22 10.09 З 8 н/о н/о +14.8 +13.0 89 +13 +13 1015.9 1015.5
23 10.09 З 8 н/о н/о +14.9 +13.1 89 +13 +13 1016.4 1016.0
00 11.09 З 8 н/о н/о +14.7 +12.7 88 +12 +12 1016.8 1016.4
01 11.09 З 6 н/о н/о +14.3 +12.6 90 +12 +12 1017.3 1016.8
02 11.09 З 7 н/о н/о +14.4 +12.3 87 +12 +12 1017.5 1017.0
03 11.09 З 7 н/о н/о +14.5 +12.1 86 +12 +12 1017.3 1016.9
04 11.09 ЮЗ 7 н/о н/о +14.4 +12.8 90 +12 +12 1017.5 1017.1 0.1
05 11.09 ЮЗ 7 н/о н/о +14.4 +12.3 87 +12 +12 1017.6 1017.2
06 11.09 ЮЗ 9 н/о н/о +14.5 +12.4 87 +12 +12 1017.9 1017.4 +14.2 +15.7 0.1
07 11.09 ЮЗ 9 н/о н/о +14.5 +12.1 86 +12 +12 1018.2 1017.8
08 11.09 ЮЗ 10 н/о н/о +14.8 +12.1 84 +12 +12 1018.2 1017.8
09 11.09 ЮЗ 10 н/о н/о +15.5 +12.4 82 +13 +13 1018.2 1017.7
10 11.09 ЮЗ 10 н/о н/о +16.2 +12.0 76 +14 +14 1017.9 1017.5
11 11.09 ЮЗ 9 н/о н/о +17.2 +11.9 71 +16 +16 1017.8 1017.3
12 11.09 Ю 9 н/о н/о +17.5 +12.4 72 +16 +16 1017.2 1016.8
13 11.09 ЮЗ 9 н/о н/о +17.7 +12.4 71 +17 +17 1017.0 1016.6
14 11.09 ЮЗ 8 н/о н/о +17.4 +13.0 75 +16 +16 1016.8 1016.4
15 11.09 ЮЗ 11 н/о н/о +17.1 +12.4 74 +15 +15 1016.6 1016.1
16 11.09 ЮЗ 11 н/о н/о +16.9 +12.6 76 +15 +15 1016.6 1016.2
17 11.09 ЮЗ 12 н/о н/о +15.4 +13.1 86 +13 +13 1016.6 1016.1 0.8
18 11.09 ЮЗ 13
{20}
н/о н/о +14.9 +13.5 91 +12 +12 1016.4 1015.9 +14.3 +18.1 1
19 11.09 ЮЗ 14 н/о н/о +14.9 +13.2 90 +12 +12 1016.4 1015.9
20 11.09 ЮЗ 13 н/о н/о +14.7 +13.4 92 +12 +12 1016.5 1016.1
21 11.09 ЮЗ 12 н/о н/о +14.8 +13.9 94 +12 +12 1017.1 1016.7 0.1
22 11.09 ЮЗ 10 н/о н/о +15.3 +14.5 95 +13 +13 1017.5 1017.1 0.1
23 11.09 З 9 н/о н/о +15.8 +14.2 90 +14 +14 1018.0 1017.6
00 12.09 З 7 н/о н/о +15.2 +13.3 88 +13 +13 1018.7 1018.3 0.1
01 12.09 З 6 н/о н/о +15.0 +13.3 90 +13 +13 1019.4 1018.9
02 12.09 З 6 н/о н/о +15.1 +13.3 89 +13 +13 1019.7 1019.2
03 12.09 З 8 н/о н/о +15.2 +13.4 89 +13 +13 1020.3 1019.8
04 12.09 З 6 н/о н/о +14.8 +13.1 90 +13 +13 1020.6 1020.2
05 12.09 З 6 н/о н/о +15.0 +13.0 88 +13 +13 1021.3 1020.9
06 12.09 З 6 н/о н/о +15.3 +12.9 86 +14 +14 1021.9 1021.5 +14.5 +15.8
07 12.09 ЮЗ 7 н/о н/о +15.7 +13.7 88 +14 +14 1022.3 1021.9
08 12.09 ЮЗ 7 н/о н/о +16.0 +14.1 88 +15 +15 1022.9 1022.4
09 12.09 ЮЗ 9 н/о н/о +16.1 +14.7 91 +14 +14 1023.7 1023.2
10 12.09 ЮЗ 9 н/о н/о +16.4 +14.6 89 +15 +15 1024.0 1023.5
11 12.09 ЮЗ 8 н/о н/о +16.9 +14.9 88 +16 +16 1024.2 1023.8
12 12.09 ЮЗ 8 н/о н/о +17.1 +14.7 86 +16 +16 1024.1 1023.7
13 12.09 ЮЗ 8 н/о н/о +18.1 +14.6 80 +17 +17 1024.3 1023.9
14 12.09 ЮЗ 8 н/о н/о +18.3 +14.7 80 +18 +18 1024.3 1023.9
15 12.09 З 6 н/о н/о +18.2 +13.1 72 +18 +18 1024.2 1023.8
16 12.09 З 6 н/о н/о +17.8 +13.0 73 +17 +17 1024.1 1023.6
17 12.09 ЮЗ 5 н/о н/о +17.0 +13.7 81 +16 +16 1024.1 1023.6
18 12.09 З 8 н/о н/о +16.6 +13.1 80 +15 +15 1024.3 1023.8 +15.3 +18.5
19 12.09 ЮЗ 6 н/о н/о +16.4 +13.7 84 +15 +15 1024.3 1023.9
20 12.09 ЮЗ 7 н/о н/о +16.5 +13.9 85 +15 +15 1024.1 1023.7
21 12.09 ЮЗ 8 н/о н/о +16.5 +14.0 85 +15 +15 1023.6 1023.2
22 12.09 ЮЗ 8 н/о н/о +16.4 +14.0 86 +15 +15 1023.1 1022.7
23 12.09 ЮЗ 8 н/о н/о +16.5 +14.1 86 +15 +15 1022.9 1022.5
00 13.09 ЮЗ 7 н/о н/о +16.4 +14.3 87 +15 +15 1022.3 1021.8
01 13.09 ЮЗ 8 н/о н/о +16.5 +14.5 88 +15 +15 1021.4 1021.0
02 13.09 ЮЗ 10 н/о н/о +16.1 +15.4 96 +14 +14 1020.8 1020.3 0.8
03 13.09 ЮЗ 12 н/о н/о +16.3 +15.5 95 +14 +14 1020.4 1019.9 0.8
04 13.09 З 10 н/о н/о +16.7 +16.1 96 +15 +15 1020.8 1020.4 0.2
05 13.09 С 10 н/о н/о +15.4 +13.8 90 +13 +13 1022.0 1021.5 0.5
06 13.09 СЗ 8
{15}
н/о н/о +15.0 +12.9 87 +13 +13 1023.5 1023.1 +14.8 +16.7 0.7
07 13.09 СЗ 9 н/о н/о +15.0 +12.0 82 +13 +13 1024.6 1024.1
08 13.09 СЗ 9 н/о н/о +15.2 +11.5 79 +13 +13 1025.7 1025.3
09 13.09 СЗ 9 н/о н/о +15.5 +9.6 68 +13 +13 1027.1 1026.6
10 13.09 СЗ 9 н/о н/о +15.8 +9.5 66 +14 +14 1027.8 1027.4
11 13.09 З 10 н/о н/о +16.2 +9.9 66 +14 +14 1028.3 1027.9
12 13.09 З 9 н/о н/о +17.1 +9.6 61 +16 +16 1029.1 1028.6
13 13.09 З 10 н/о н/о +16.8 +8.4 58 +15 +15 1029.4 1029.0
14 13.09 З 10 н/о н/о +16.9 +10.6 66 +15 +15 1029.9 1029.4
15 13.09 СЗ 10 н/о н/о +16.7 +8.3 58 +15 +15 1030.2 1029.8
16 13.09 З 9 н/о н/о +16.2 +9.3 64 +15 +15 1030.3 1029.9
17 13.09 СЗ 10 н/о н/о +15.7 +9.8 68 +14 +14 1030.8 1030.3
18 13.09 СЗ 8 н/о н/о +15.1 +10.6 74 +13 +13 1031.3 1030.9 +14.8 +17.2
19 13.09 СЗ 9 н/о н/о +15.1 +9.3 68 +13 +13 1031.7 1031.3
20 13.09 СЗ 8 н/о н/о +14.6 +9.2 70 +12 +12 1032.2 1031.7
21 13.09 СЗ 8 н/о н/о +14.3 +9.7 74 +12 +12 1032.8 1032.3
22 13.09 СЗ 7 н/о н/о +13.9 +9.5 75 +12 +12 1033.1 1032.6
23 13.09 СЗ 7 н/о н/о +13.7 +9.0 73 +11 +11 1033.3 1032.9
00 14.09 З 5 н/о н/о +13.2 +9.3 77 +11 +11 1033.3 1032.8
01 14.09 СЗ 6 н/о н/о +13.7 +9.8 77 +12 +12 1033.3 1032.8
02 14.09 З 5 н/о н/о +12.5 +9.6 82 +10 +10 1033.4 1033.0
03 14.09 З 4 н/о н/о +12.6 +9.8 83 +11 +11 1033.2 1032.8
04 14.09 З 5 н/о н/о +12.5 +9.8 84 +10 +10 1033.1 1032.6
05 14.09 З 5 н/о н/о +12.5 +9.6 82 +10 +10 1033.2 1032.7
06 14.09 З 5 н/о н/о +13.2 +9.5 78 +11 +11 1033.3 1032.9 +12.2 +15.4
07 14.09 З 5 н/о н/о +13.9 +9.6 75 +12 +12 1033.7 1033.3
08 14.09 З 4 н/о н/о +14.5 +9.1 70 +13 +13 1033.9 1033.5
09 14.09 З 5 н/о н/о +15.7 +9.2 65 +15 +15 1033.6 1033.1
10 14.09 З 5 н/о н/о +16.2 +8.5 60 +15 +15 1033.4 1033.0
11 14.09 З 6 н/о н/о +16.3 +9.2 63 +15 +15 1033.3 1032.9
12 14.09 З 6 н/о н/о +16.7 +9.6 63 +16 +16 1032.7 1032.3
13 14.09 ЮЗ 6 н/о н/о +16.8 +8.7 59 +16 +16 1032.1 1031.6
14 14.09 ЮЗ 6 н/о н/о +15.8 +9.3 65 +14 +14 1031.0 1030.6
15 14.09 ЮЗ 6 н/о н/о +16.6 +9.5 63 +16 +16 1030.3 1029.9
16 14.09 З 7 н/о н/о +16.4 +8.9 61 +15 +15 1029.6 1029.2
17 14.09 З 6 н/о н/о +15.6 +9.3 66 +14 +14 1028.9 1028.5
18 14.09 З 6 н/о н/о +15.1 +10.1 72 +13 +13 1028.4 1028.0 +13.2 +17.0
19 14.09 ЮЗ 7 н/о н/о +15.0 +10.7 75 +13 +13 1027.7 1027.2
20 14.09 ЮЗ 9 н/о н/о +15.0 +9.8 71 +13 +13 1026.8 1026.3
21 14.09 ЮЗ 10 н/о н/о +15.0 +10.6 75 +13 +13 1025.5 1025.1
22 14.09 ЮЗ 10 н/о н/о +14.7 +10.7 77 +12 +12 1025.0 1024.6
23 14.09 ЮЗ 10 н/о н/о +14.7 +10.8 77 +12 +12 1023.8 1023.4
00 15.09 ЮЗ 10 н/о н/о +14.5 +11.1 80 +12 +12 1022.6 1022.2
01 15.09 ЮЗ 10 н/о н/о +14.6 +10.9 78 +12 +12 1021.4 1021.0
02 15.09 ЮЗ 10 н/о н/о +14.8 +10.7 76 +12 +12 1020.0 1019.6
03 15.09 ЮЗ 13 н/о н/о +14.8 +10.3 74 +12 +12 1019.0 1018.6
04 15.09 ЮЗ 13 н/о н/о +14.5 +10.1 75 +11 +11 1017.5 1017.1
05 15.09 ЮЗ 13 н/о н/о +14.9 +10.2 73 +12 +12 1017.0 1016.6
06 15.09 ЮЗ 13 н/о н/о +14.7 +10.7 77 +12 +12 1016.2 1015.7 +14.4 +15.2
07 15.09 ЮЗ 12 н/о н/о +14.9 +11.7 81 +12 +12 1015.8 1015.3
08 15.09 ЮЗ 12 н/о н/о +15.6 +12.8 83 +13 +13 1015.1 1014.7
09 15.09 З 11 н/о н/о +16.3 +14.1 87 +14 +14 1015.0 1014.6
10 15.09 З 11 н/о н/о +16.0 +14.4 90 +14 +14 1015.2 1014.8
11 15.09 З 10 н/о н/о +16.4 +14.0 86 +15 +15 1014.9 1014.5
12 15.09 З 9 н/о н/о +16.0 +12.8 81 +14 +14 1015.4 1015.0
13 15.09 З 7 н/о н/о +16.7 +13.1 79 +16 +16 1015.1 1014.6
14 15.09 З 13 н/о н/о +16.4 +10.2 67 +14 +14 1015.4 1014.9
15 15.09 З 13 н/о н/о +15.9 +8.8 63 +13 +13 1015.8 1015.4
16 15.09 З 10 н/о н/о +15.3 +8.8 65 +13 +13 1015.7 1015.3
17 15.09 З 11 н/о н/о +14.7 +8.5 66 +12 +12 1015.7 1015.2
18 15.09 З 10 н/о н/о +14.2 +8.9 70 +12 +12 1016.3 1015.8 +14.1 +16.9
19 15.09 З 12 н/о н/о +14.1 +9.5 74 +11 +11 1016.4 1016.0
20 15.09 З 11 н/о н/о +13.6 +8.1 69 +11 +11 1016.5 1016.1
21 15.09 З 9 н/о н/о +13.1 +8.2 72 +10 +10 1016.6 1016.2
22 15.09 З 11 н/о н/о +12.9 +7.7 71 +10 +10 1016.8 1016.3
23 15.09 З 11 н/о н/о +13.0 +7.6 70 +10 +10 1017.0 1016.6
00 16.09 З 10 н/о н/о +13.2 +8.3 72 +10 +10 1016.9 1016.4
01 16.09 З 9 н/о н/о +13.3 +8.5 73 +10 +10 1017.0 1016.6
02 16.09 З 9 н/о н/о +12.5 +8.0 74 +9 +9 1017.0 1016.5
03 16.09 З 9 н/о н/о +12.8 +8.7 76 +10 +10 1016.7 1016.2
04 16.09 З 12 н/о н/о +13.3 +7.1 66 +10 +10 1016.5 1016.0
05 16.09 З 9 н/о н/о +12.3 +7.5 72 +9 +9 1016.3 1015.9
06 16.09 З 7 н/о н/о +12.7 +7.7 72 +10 +10 1016.1 1015.7 +12.2 +14.3
07 16.09 З 8 н/о н/о +13.4 +7.7 68 +11 +11 1016.5 1016.1
08 16.09 СЗ 9 н/о н/о +13.5 +8.5 72 +11 +11 1016.6 1016.2

 

Местоположение метеостанции Ланго (Дания): широта 54.82 долгота 11.00 высота над уровнем моря 4 м.

В архиве по умолчанию представлена погода в Ланго за последнюю неделю. Архивные данные за месяц целиком и за предыдущие месяцы, начиная с января 2011 года, Вы можете получить, выбрав интересующий диапазон дат из раскрывающегося списка и нажав кнопку "Ввод!".


*Определитесь, кто Вы:
робот инопланетянин человек

Внимание! Время в таблицах - всемирное. Для получения местного времени необходимо прибавить поправку, которая равна 1 ч.

Смотрите также архив погоды в соседних городах и на ближайших метеорологических станциях:

Погода в Абеде (Дания) (21 км)
Погода в Вестермаркельсдорфе (Германия) (33 км)
Погода в Тосинге (Дания) (35 км)
Погода в Мариенлойхте (Германия) (39 км)
Погода в Омо (Дания) (40 км)
Погода в Тысофте (Дания) (52 км)
Погода в Киль маяке (Германия) (58 км)
Погода в Флаккебэрге (Дания) (61 км)
Погода в Ольпенице (Германия) (64 км)
Погода в Арслеве (Дания) (65 км)

Пояснения к столбцам:

Ветер - указаны скорость ветра в м/с - средняя за 10 мин, порывы в срок и между сроками (в фигурных скобках) и направление, откуда дует ветер: С - северный, СВ - северо-восточный, В - восточный, ЮВ - юго-восточный, Ю - южный, ЮЗ - юго-западный, З - западный, СЗ - северо-западный.
Видимость - горизонтальная дальность видимости в метрах или километрах. При видимости от 1 до 10 км при отсутствии осадков обычно наблюдается дымка, при ухудшении видимости до 1 км и менее - туман. В сухую погоду видимость может ухудшаться дымом, пылью или мглою.
Явления - указаны атмосферные явления, наблюдавшиеся в срок или в последний час перед сроком; фигурными скобками обозначены явления, наблюдавшиеся между сроками (за 1-3 часа до срока); квадратными скобками обозначены град или гололедные отложения с указанием их диаметра в мм.
Облачность - указаны через наклонную черту общая и нижняя облачность в баллах и высота нижней границы облаков в метрах; квадратными скобками обозначены формы облаков: Ci - перистые, Cs - перисто-слоистые, Cc - перисто-кучевые, Ac - высококучевые, As - высокослоистые, Sc - слоисто-кучевые, Ns - слоисто-дождевые, Cu - кучевые, Cb - кучево-дождевые. Подробнее классификацию облаков см. в Атласе облаков (PDF).
T - Температура воздуха - температура, измеренная на высоте 2 м над землей.
Td - Температура точки росы - температура, при понижении до которой содержащийся в воздухе водяной пар достигнет насыщения.
f - Относительная влажность воздуха - влажноcть воздуха, измеренная на высоте 2 м над землей.
Te - Эффективная температура - температура, которую ощущает одетый по сезону человек в тени. Характеристика душности погоды. При расчете учитывается влияние влажности воздуха и скорости ветра на теплоощущения человека.
Tes - Эффективная температура на солнце - температура, которую ощущает человек, с поправкой на солнечный нагрев. Характеристика знойности погоды. Зависит от высоты солнца над горизонтом, облачности и скорости ветра. Ночью, в пасмурную погоду, а также при ветре 12 м/с и более поправка равна нулю.
P - Атмосферное давление - приведенное к уровню моря атмосферное давление.
Po - Атмосферное давление - измеренное на уровне метеостанции атмосферное давление.
Tmin - Минимальная температура - минимум температуры воздуха на высоте 2 м над землей.
Tmax - Максимальная температура - максимум температуры воздуха на высоте 2 м над землей.
R - Количество осадков - Количество выпавших осадков за период времени, мм. При наведении курсора мыши на число - период времени, за который выпало указанное количество осадков.
R24 - Количество осадков - Количество выпавших осадков за 24 часа, мм.
S - Снежный покров - Высота снежного покрова, см. При наведении курсора мыши на число - состояние снежного покрова и степень покрытия местности в баллах.